Terminal Aerodrome Forecast
Issued by NWS

Home | Current Version | Previous Version | Text Only | Print | Product List | Glossary On
Versions: 1 2 3 4 5 6 7 8 9 10 11 12 13 14 15 16 17 18 19 20 21 22 23 24 25 26 27 28 29 30 31 32 33 34 35 36 37 38
000
FTAK31 PANC 291123
TAFADL
TAF
PADL 291123Z 2912/3012 27006KT 2SM -RA SCT005 BKN007
      TEMPO 2912/2916 32010KT 4SM -RA BR BKN025
     FM291800 35004KT 5SM -SHRA BR BKN025
     FM300900 35004KT P6SM BKN050
      AMD LTD TO CLD VIS AND WIND TIL 291600=

USA.gov is the U.S. government's official web portal to all federal, state and local government web resources and services.